User: anonymous   Login
Location: Unspecified
(0.0000°N, 0.0000°E)
Time: 09:37:03
(UTC+00:00)
Language:

Transit VE-5 - Orbit

View from above orbital plane
View from above orbital plane
View from above satellite
View from above satellite

Ground track
Ground track

The orbit data is extracted from the following two-line orbital elements,

1   959U 64083C   17295.23604894 +.00000077 +00000-0 +88391-4 0  9991
2   959 089.9994 187.6162 0039906 265.5757 206.1592 13.61523881620122
Epoch (UTC): 22 October 2017 05:39:54
Eccentricity: 0.0039906
inclination: 89.9994°
perigee height: 1000 km
apogee height: 1060 km
right ascension of ascending node: 187.6162°
argument of perigee: 265.5757°
revolutions per day: 13.61523881
mean anomaly at epoch: 206.1592°
orbit number at epoch: 62012

The dashed part of the orbit path shows where the satellite is in the earth's shadow,  

DLR